Find Starlink 31539

NORAD ID: 59539 Int'l Des: 2024-074 Owner: SPXS Country: US Constellation: starlink operational
LEOCIRCULAR

Current View

Loading 3D Globe...

About Starlink 31539

Starlink 31539 (NORAD 59539) is a starlink constellation satellite (v2 mini) launched Apr 18, 2024 by SPXS of US. It operates in LEO, CIRCULAR orbit with a mass of 730.00 kg.

Upcoming Passes

Passes for default location (London). Set your location on the main map for personalized predictions.

Altitude History

Loading altitude history...

Two-Line Element Set

1 59539U 24074F 26263.47737990 -.00000980 00000-0 -26094-4 0 9997
2 59539 43.0026 323.5482 0000945 276.4594 83.6150 15.27579584135803
Epoch: Sep 20, 2026 • Age: 17 hours

Current Status

Altitude 484.5 km
Apogee / Perigee N/A
Velocity 7.62 km/s
Sub-Earth Point -10.38°S, 121.63°W
Launch Date Apr 18, 2024
Age 2.4 years
Type internet

Technical Details

Classification Payload
Mass 730.00 kg
Dry Mass 700.00 kg
Length 0.30 m
Span 29.00 m
Shape ? Box + pan
Manufacturer SPXS
Bus Type Starlink V2M
Phase Status In Orbit
Owner/State SPXS/US

Most Searched